Location: Limerick
(52.6800°N, 8.6400°W)
Time: 22:41:19
(UTC+00:00)

Sapphire - Visible Passes

Search period start: 16 December 2017 00:00
Search period end: 26 December 2017 00:00
Orbit: 787 x 794 km, 67.1° (Epoch: 15 December)

Date Brightness Start Highest point End Pass type
(mag) Time Alt. Az. Time Alt. Az. Time Alt. Az.
16 Dec ? 17:43:00 10° ESE 17:44:52 12° ESE 17:45:19 12° E visible
16 Dec ? 19:21:52 10° SSW 19:26:05 49° S 19:26:05 49° S visible
16 Dec ? 21:05:53 10° WSW 21:06:51 15° W 21:06:51 15° W visible
17 Dec ? 18:51:25 10° S 18:56:35 47° ESE 18:56:49 47° ESE visible
17 Dec ? 20:34:53 10° WSW 20:37:35 27° W 20:37:35 27° W visible
18 Dec ? 18:21:05 10° S 18:26:01 37° ESE 18:27:28 31° E visible
18 Dec ? 20:03:58 10° WSW 20:08:14 46° W 20:08:14 46° W visible
19 Dec ? 17:50:54 10° S 17:55:28 29° ESE 17:58:03 20° ENE visible
19 Dec ? 19:33:07 10° SW 19:38:32 66° NW 19:38:49 65° NNW visible
19 Dec ? 21:18:31 10° WNW 21:19:34 14° WNW 21:19:34 14° WNW visible
20 Dec ? 17:20:53 10° SSE 17:24:57 22° ESE 17:28:34 12° ENE visible
20 Dec ? 19:02:22 10° SW 19:07:49 82° NW 19:09:20 49° NNE visible
20 Dec ? 20:47:23 10° W 20:50:05 22° WNW 20:50:05 22° WNW visible
21 Dec ? 18:31:41 10° SSW 18:37:07 81° SE 18:39:47 31° NE visible
21 Dec ? 20:16:17 10° W 20:20:32 30° NW 20:20:32 30° NW visible
22 Dec ? 18:01:06 10° SSW 18:06:27 64° ESE 18:10:11 20° NE visible
22 Dec ? 19:45:14 10° WSW 19:50:14 36° NW 19:50:56 35° NNW visible
22 Dec ? 21:31:23 10° NW 21:31:40 11° NW 21:31:40 11° NW visible
23 Dec ? 17:30:37 10° SSW 17:35:50 50° ESE 17:40:32 13° NE visible
23 Dec ? 19:14:14 10° WSW 19:19:24 43° NW 19:21:17 32° N visible
23 Dec ? 21:00:14 10° WNW 21:02:01 16° NW 21:02:01 16° NW visible
24 Dec ? 17:00:15 10° S 17:05:15 39° ESE 17:10:16 10° NE visible
24 Dec ? 18:43:17 10° WSW 18:48:35 51° NW 18:51:36 25° NNE visible
24 Dec ? 20:29:04 10° WNW 20:32:20 21° NNW 20:32:20 21° NNW visible
25 Dec ? 18:12:25 10° SW 18:17:49 63° NW 18:21:53 18° NNE visible
25 Dec ? 19:57:54 10° WNW 20:02:15 24° NNW 20:02:37 24° NNW visible
